Home   Weather   Bernau bei Berlin   Past weeks

Flag for Germany Past Weather in Bernau bei Berlin, Brandenburg, Germany — Yesterday and Last 2 Weeks

Now
45 °F

Partly sunny.


Feels Like: 41 °F
Forecast: 35 / 52 °F
Wind: 6 mph from West

Location: Berlin-Tegel

Current Time: Apr 26, 2017 at 10:12:22 am

Latest Report: Apr 26, 2017 at 9:20 am


Visibility: N/A

Pressure: 29.86 "Hg

Humidity: 61%

Dew Point: 32 °F

Location of Bernau bei BerlinLocation

Past Weather in Bernau bei Berlin — Graph

°F

Bernau bei Berlin Temperature Yesterday

Maximum temperature yesterday: 52 °F (at 4:20 pm)
Minimum temperature yesterday: 37 °F (at 11:20 pm)
Average temperature yesterday: 46 °F

High & Low Weather Summary for the Past Weeks

 TemperatureHumidityPressure
High59 °F (Apr 21, 2:50 pm)100% (Apr 17, 4:20 am)30.60 "Hg (Apr 17, 4:20 am)
Low28 °F (Apr 20, 4:20 am)34% (Apr 19, 4:50 pm)29.56 "Hg (Apr 25, 5:50 am)
Average44 °F71%30.03 "Hg
* Reported Apr 11 9:20 am — Apr 26 9:20 am, Bernau bei Berlin, Weather by CustomWeather, © 2017

Note: Actual official high and low records may vary slightly from our data, if they occured in-between our weather recording intervals... More about our weather records

Advertising

Bernau bei Berlin Weather History for the Previous 24 Hours

Scroll right to see more
 ConditionsComfort  
Time TempWeatherWind HumidityBarometerVisibility
9:20 am
Wed, Apr 26
45 °FPartly sunny.6 mph61%29.86 "HgN/A
8:50 am43 °FPassing clouds.5 mph66%29.86 "HgN/A
8:20 am43 °FPassing clouds.3 mph71%29.86 "HgN/A
7:50 am41 °FPassing clouds.3 mph76%29.83 "HgN/A
7:20 am37 °FSunny.2 mph87%29.83 "Hg10 mi
6:50 am36 °FSunny.1 mph93%29.83 "Hg10 mi
6:20 am34 °FSunny.No wind93%29.83 "Hg10 mi
5:50 am34 °FSunny.1 mph93%29.83 "Hg10 mi
5:20 am34 °FClear.1 mph93%29.80 "Hg10 mi
4:50 am34 °FClear.1 mph93%29.83 "Hg10 mi
4:20 am34 °FClear.1 mph87%29.83 "Hg10 mi
3:50 am34 °FClear.1 mph93%29.80 "Hg10 mi
3:20 am36 °FClear.1 mph87%29.80 "Hg10 mi
2:50 am36 °FClear.1 mph87%29.80 "Hg10 mi
2:20 am36 °FClear.1 mph87%29.80 "Hg10 mi
1:50 am36 °FClear.2 mph87%29.80 "Hg10 mi
1:20 am36 °FClear.2 mph81%29.80 "Hg10 mi
12:50 am37 °FClear.3 mph81%29.80 "Hg10 mi
12:20 am36 °FClear.3 mph87%29.80 "Hg10 mi
11:50 pm
Tue, Apr 25
37 °FClear.2 mph81%29.80 "Hg10 mi
11:20 pm37 °FClear.2 mph81%29.80 "Hg10 mi
10:50 pm39 °FPassing clouds.2 mph75%29.77 "HgN/A
10:20 pm41 °FPassing clouds.2 mph70%29.77 "HgN/A
9:50 pm43 °FPassing clouds.6 mph66%29.77 "HgN/A
9:20 pm45 °FPassing clouds.8 mph61%29.74 "HgN/A
8:50 pm45 °FPassing clouds.8 mph57%29.74 "HgN/A
8:20 pm46 °FScattered clouds.12 mph50%29.74 "HgN/A
7:50 pm46 °FScattered clouds.13 mph53%29.71 "HgN/A
7:20 pm46 °FPartly sunny.14 mph53%29.71 "HgN/A
6:50 pm48 °FBroken clouds.10 mph50%29.71 "HgN/A
6:20 pm48 °FBroken clouds.16 mph50%29.71 "HgN/A
5:50 pm48 °FBroken clouds.16 mph54%29.71 "HgN/A
4:50 pm52 °FScattered showers. Broken clouds.23 mph38%29.68 "HgN/A
4:20 pm52 °FBroken clouds.16 mph41%29.65 "HgN/A
3:50 pm50 °FBroken clouds.18 mph50%29.65 "HgN/A
3:20 pm50 °FBroken clouds.22 mph54%29.65 "HgN/A
2:50 pm48 °FBroken clouds.14 mph62%29.65 "HgN/A
2:20 pm43 °FSprinkles. Partly sunny.10 mph87%29.65 "HgN/A
1:50 pm46 °FSprinkles. Partly sunny.17 mph71%29.65 "HgN/A
1:20 pm48 °FSprinkles. Partly sunny.14 mph66%29.65 "HgN/A
12:50 pm46 °FSprinkles. Partly sunny.15 mph76%29.65 "HgN/A
12:20 pm45 °FPartly sunny.16 mph81%29.65 "HgN/A
11:50 am45 °FPartly sunny.16 mph81%29.65 "HgN/A
11:20 am43 °FLight rain. Partly sunny.10 mph87%29.62 "HgN/A
10:50 am43 °FLight rain. Cloudy.8 mph87%29.62 "HgN/A
10:20 am43 °FLight rain. Cloudy.6 mph87%29.62 "HgN/A
Weather by CustomWeather, © 2017

See weather overviewHow to use our weather pages